Wind_Speed
25 26 25 22 20 20 21 21 21 19 18 19 20 17 15 16 15 14 13 13 13 13 14 14 13 12 12 12 14 16 17 18 18 18 18 18 18 17 17 16 16 15
23 24 23 21 20 21 22 22 21 20 20 20 18 16 16 17 15 14 14 14 13 13 13 13 13 12 12 13 15 17 18 18 18 17 17 17 17 17 17 16 16 15
22 22 21 21 22 22 21 20 21 21 21 21 18 17 18 18 16 15 15 15 14 13 13 13 12 12 13 15 17 18 18 18 17 17 17 16 16 16 16 16 15 15
22 21 20 22 23 21 20 21 22 22 22 21 20 19 19 18 17 16 16 15 14 14 14 13 13 13 14 16 17 17 17 17 17 16 16 16 15 16 16 16 16 16
21 19 18 21 23 21 22 24 23 22 22 22 22 21 20 18 17 17 16 15 15 15 15 14 14 14 15 16 17 18 17 16 16 16 16 16 15 15 15 15 15 15
20 17 17 20 22 22 24 25 23 21 21 22 23 21 20 18 18 18 17 16 16 15 15 14 15 15 15 17 17 17 17 16 15 15 16 16 15 14 14 13 13 13
21 19 19 19 20 23 26 24 22 21 21 22 22 21 20 19 17 17 16 16 15 15 15 15 15 15 16 16 16 16 16 16 15 15 16 16 15 14 13 13 13 12
23 22 20 18 20 24 25 23 22 21 21 22 22 21 19 17 17 17 16 15 16 15 15 15 15 16 15 15 16 17 16 15 14 15 15 15 14 14 13 13 12 11
24 23 21 20 22 24 24 23 22 21 21 20 19 19 17 17 17 17 16 16 16 16 15 16 15 15 15 16 17 17 16 15 14 15 15 14 14 14 13 13 12 11
24 23 23 23 23 24 24 23 22 21 20 18 18 18 17 17 18 17 16 16 17 16 16 16 16 15 16 16 16 15 15 15 15 15 14 14 14 13 12 12 11 10
24 24 25 24 24 25 25 24 23 21 19 18 19 18 17 18 18 17 16 17 17 17 17 17 16 16 17 16 16 15 16 16 15 15 14 14 14 13 12 11 10 10
25 26 26 24 25 27 27 25 23 21 19 19 19 19 18 18 18 17 17 17 18 18 18 17 17 17 17 17 17 16 16 15 15 15 15 14 14 13 12 11 10 10
25 26 25 25 28 30 28 25 23 21 20 19 19 20 19 19 18 17 17 18 18 18 18 18 18 18 18 18 17 17 16 16 16 15 15 14 14 13 12 11 10 10
26 25 24 26 30 31 28 24 22 21 20 20 21 20 19 19 18 18 18 18 18 19 19 19 19 19 19 18 18 17 17 17 17 16 16 15 14 13 12 11 10 10
26 25 25 28 31 30 27 24 22 21 21 21 22 21 19 18 18 18 19 19 19 19 19 20 19 19 19 19 18 18 18 17 17 16 16 16 15 13 12 11 10 11
26 25 26 31 32 29 26 24 22 21 21 21 21 20 19 18 18 19 19 19 20 20 20 20 19 19 20 19 19 19 18 17 17 16 16 16 15 14 12 11 12 13
25 25 28 32 31 28 26 24 22 22 21 20 20 20 19 19 19 19 19 20 21 21 20 20 19 20 21 20 19 19 18 18 17 17 16 15 15 14 13 13 15 16
25 28 31 31 29 27 26 24 22 22 21 20 20 20 19 19 19 19 20 20 21 21 20 19 19 22 22 21 21 19 18 18 17 17 16 15 15 13 13 14 14 13
25 28 29 28 28 27 26 24 23 22 21 20 20 20 19 19 18 19 20 20 21 21 19 18 21 23 24 23 22 21 19 18 17 16 16 15 14 13 13 13 12 11
26 27 27 28 28 27 26 25 23 22 21 20 20 20 19 19 18 19 19 20 21 20 17 18 22 24 25 24 23 21 20 18 17 16 15 13 13 13 13 12 11 10
26 26 26 28 28 27 27 26 23 23 22 21 21 20 18 18 18 19 19 19 20 19 17 19 23 26 26 25 23 22 20 18 17 17 17 16 15 14 13 12 10 10
26 26 26 28 28 28 28 27 24 23 22 22 21 20 19 17 17 18 19 19 19 18 17 20 24 27 27 27 25 22 20 19 19 19 18 17 17 16 14 12 11 10
26 26 28 29 29 28 29 27 25 23 22 23 22 20 19 18 17 17 18 19 19 18 18 20 25 28 29 29 26 23 21 20 19 18 17 16 16 15 14 12 11 11
26 28 31 32 29 29 29 28 25 23 22 22 22 20 19 18 17 16 17 18 18 18 17 19 25 30 31 30 28 24 22 20 17 16 16 15 15 15 13 14 14 12
28 30 33 32 30 29 29 28 25 23 21 21 20 19 18 19 17 16 16 17 17 17 15 18 26 31 31 31 30 25 22 20 16 15 16 15 15 15 13 13 15 14
28 29 30 30 30 29 28 26 24 22 23 22 20 18 18 19 18 17 16 16 16 15 13 17 25 30 31 32 30 25 23 21 17 16 17 15 15 15 13 12 14 15
Wind_Direction
167 168 170 171 166 166 165 164 164 162 160 156 154 152 149 146 144 147 146 137 131 126 125 123 121 121 120 121 123 120 117 114 109 108 106 103 100 97 96 94 92 91
172 170 166 163 163 165 164 165 164 158 155 153 151 148 142 141 145 144 135 128 126 125 127 126 123 125 126 127 125 120 117 113 109 108 106 102 101 98 96 95 93 90
172 167 163 161 162 162 163 164 161 156 153 149 146 141 139 143 145 139 131 128 127 127 127 126 126 130 132 129 125 119 117 114 112 111 108 104 103 100 98 97 96 92
170 164 163 163 162 161 161 161 158 157 155 150 147 145 146 150 145 136 133 133 133 132 131 129 129 133 133 131 127 122 120 118 116 116 112 109 105 102 100 98 96 92
167 164 161 161 163 164 163 162 159 159 157 152 152 153 154 153 145 139 138 139 139 136 134 135 135 136 137 134 130 126 123 120 120 120 116 113 109 105 104 101 99 93
163 162 158 160 166 167 165 163 161 161 160 159 159 158 157 153 148 146 144 142 141 139 138 141 141 140 140 137 132 128 126 124 124 123 118 115 111 108 106 104 102 98
160 158 155 159 165 166 163 161 161 162 163 165 163 160 156 153 150 149 146 143 142 142 144 145 145 144 142 139 135 132 130 128 127 125 121 117 114 110 107 105 103 99
158 156 156 161 163 163 162 159 160 163 163 163 162 159 155 152 150 148 146 145 144 146 149 149 149 147 145 142 138 135 132 131 131 129 124 121 118 115 112 111 108 103
158 155 157 159 159 159 159 159 162 163 161 160 159 158 156 153 152 149 148 149 148 149 152 152 151 150 148 145 140 137 136 136 136 132 128 125 121 118 115 114 111 106
157 155 157 158 157 158 158 158 159 158 157 159 158 157 156 155 154 151 151 151 152 154 156 155 154 152 149 146 143 141 140 139 137 133 130 128 124 122 119 116 114 109
157 158 159 159 159 160 158 156 155 154 157 159 157 156 157 156 156 155 155 156 157 159 159 157 157 154 151 149 147 145 142 140 139 136 134 132 127 125 123 120 117 112
160 160 161 161 160 159 157 155 154 154 157 160 159 158 159 159 159 159 160 160 162 162 161 159 158 156 155 152 148 147 145 144 143 140 137 133 128 125 124 122 118 111
163 163 162 162 162 159 155 154 154 155 158 161 161 161 161 161 163 163 163 164 165 164 162 161 159 157 156 153 151 151 150 148 145 140 136 132 129 127 126 124 122 122
166 165 162 163 162 158 155 153 155 157 160 162 163 163 163 164 166 166 165 167 166 165 164 162 161 159 158 155 154 154 152 149 146 142 140 136 133 131 129 131 137 143
165 163 162 163 160 157 156 156 156 158 162 165 165 163 165 168 169 167 168 168 166 165 164 163 162 161 161 159 158 156 153 151 149 147 144 140 136 134 132 138 149 148
164 162 162 162 159 156 157 157 157 161 163 165 165 164 168 171 169 169 171 169 167 166 164 163 164 165 164 163 160 158 155 153 152 150 146 144 141 138 139 146 148 139
161 161 161 161 159 158 159 157 159 163 163 163 164 166 170 172 170 172 172 170 169 166 164 166 169 168 166 163 160 158 157 155 153 151 149 147 144 144 147 149 143 137
160 160 160 160 159 161 162 159 160 163 162 162 166 169 171 171 172 174 173 171 170 166 166 171 172 170 168 163 160 159 158 156 154 153 152 150 149 151 152 147 141 138
162 161 159 160 161 163 165 163 161 162 162 164 168 169 170 171 175 176 173 173 170 167 170 174 173 172 169 164 162 161 158 156 157 155 153 151 153 156 156 152 148 149
162 162 161 162 163 165 166 165 163 162 163 166 168 168 169 172 176 176 175 175 172 169 173 175 174 174 171 167 165 163 158 155 155 153 152 156 161 161 161 162 162 163
161 163 164 165 166 167 168 168 165 163 165 169 169 169 172 175 178 178 176 176 175 173 174 176 177 178 175 170 167 164 158 154 155 159 159 162 164 162 163 168 171 171
165 164 166 168 169 170 171 171 168 167 170 173 171 172 176 178 179 180 179 177 177 177 177 177 179 180 178 173 169 165 159 156 161 166 164 162 161 162 165 170 171 170
169 166 165 167 169 171 173 172 170 170 174 175 173 174 178 179 178 181 182 180 180 180 180 180 181 182 182 177 171 167 162 159 162 164 163 162 162 163 166 169 171 172
172 171 169 168 171 172 172 171 170 173 175 175 174 176 178 179 179 181 183 185 184 184 186 186 183 183 183 180 175 170 164 160 161 162 161 164 167 166 168 176 183 184
174 173 170 169 171 173 172 170 171 174 175 174 176 179 178 179 182 183 184 186 185 182 186 191 187 184 185 183 179 174 167 161 163 167 167 170 172 169 173 188 195 193
174 172 172 171 171 171 170 171 172 174 174 175 178 179 179 181 185 184 181 180 178 174 182 195 191 186 186 187 183 177 170 165 164 171 176 177 177 176 181 195 203 201
Height
795 798 800 802 804 805 807 809 811 813 816 818 819 821 821 822 824 825 825 826 827 827 828 829 831 833 834 834 835 835 836 836 837 838 839 840 842 842 843 844 845 845
795 797 800 802 804 805 806 808 809 811 814 817 818 819 820 822 823 824 824 825 826 827 829 830 832 833 834 835 835 836 836 837 838 840 841 842 843 843 844 845 846 847
794 797 799 801 803 805 806 807 809 811 813 815 817 818 820 821 822 822 824 825 826 828 829 831 832 833 834 835 836 837 837 838 839 841 842 843 844 845 845 846 847 848
793 796 798 800 802 803 805 807 809 811 812 814 816 818 819 821 821 822 823 825 827 828 830 831 832 834 835 836 837 837 838 839 841 842 843 844 845 846 846 847 848 849
793 795 797 799 801 802 804 806 808 810 812 813 815 817 819 819 820 822 823 825 827 829 830 831 833 835 836 837 837 838 839 840 842 843 844 844 846 846 847 848 849 850
792 795 797 799 800 802 804 806 807 809 811 813 815 817 818 819 820 822 823 825 827 829 830 832 834 835 837 837 838 839 840 841 843 844 844 845 846 847 848 849 849 851
791 794 796 798 800 802 804 805 807 809 811 813 816 817 818 819 821 822 824 826 828 830 832 834 835 836 837 838 839 840 841 843 844 845 845 846 847 848 849 850 850 852
790 793 795 797 799 802 804 806 808 809 811 814 816 818 819 820 822 824 826 827 829 831 833 835 836 837 838 839 839 841 842 844 845 845 846 847 848 849 850 851 851 853
790 792 795 797 800 802 804 805 808 810 812 815 817 819 820 821 823 825 827 828 829 832 834 835 837 838 839 840 840 841 843 844 845 846 847 848 849 850 850 851 852 854
789 792 795 797 799 802 803 805 808 810 813 816 818 819 821 822 824 825 827 829 830 833 834 836 837 838 839 840 841 842 843 844 846 847 848 849 849 850 851 852 853 854
789 792 795 797 799 801 803 805 808 811 814 816 817 819 821 823 824 826 828 829 831 833 834 835 837 838 839 840 841 842 844 845 846 847 848 849 850 851 852 853 855 855
789 792 794 797 799 801 803 805 808 811 813 816 817 819 821 823 825 826 828 829 831 832 834 835 836 838 839 840 841 843 844 846 847 847 849 849 850 852 853 854 855 856
788 791 793 795 798 800 802 805 808 811 813 815 818 819 821 823 825 826 828 829 831 832 833 835 836 838 839 840 842 843 844 845 846 847 849 850 851 852 853 855 855 856
788 790 792 795 797 799 802 805 807 810 813 815 817 819 821 823 824 826 828 829 831 832 833 835 836 837 839 840 841 843 844 845 846 848 849 850 851 852 854 854 855 855
787 789 791 794 796 798 801 804 807 810 812 815 816 818 820 823 824 826 828 829 830 832 833 834 836 837 838 840 841 842 844 845 846 848 849 850 851 853 854 854 855 855
786 789 791 793 795 797 801 804 807 809 812 814 816 817 820 822 824 826 827 829 830 831 833 834 835 837 838 839 841 842 844 845 846 848 849 850 851 853 854 854 855 855
785 788 790 792 794 797 800 803 806 809 811 813 815 817 820 822 824 825 827 828 829 831 832 833 834 836 837 839 841 842 844 845 847 848 849 850 852 853 854 854 855 856
785 787 789 792 794 797 801 803 806 808 810 813 815 817 819 821 823 825 826 828 829 830 832 832 834 835 837 839 840 842 844 845 847 848 849 850 852 853 855 855 855 856
784 786 788 792 794 797 801 803 806 808 810 812 815 817 819 821 823 825 826 827 828 830 831 831 833 835 837 839 840 842 843 845 846 848 849 851 852 854 855 856 856 856
783 785 788 791 793 797 800 803 805 807 809 812 814 816 818 820 822 824 825 827 828 829 830 831 833 835 836 838 840 841 843 844 846 848 850 852 854 855 856 857 857 857
782 785 788 790 793 797 799 802 805 807 809 812 814 816 818 820 822 824 825 826 828 828 829 830 833 835 836 838 840 841 843 844 846 847 848 850 852 854 855 857 857 857
781 784 787 789 793 796 798 801 804 806 808 811 813 815 818 819 821 823 824 826 827 827 828 830 832 834 836 838 840 841 842 843 845 847 847 848 850 851 853 855 857 857
780 783 785 788 791 794 797 800 803 805 807 809 811 814 816 818 821 823 824 825 826 826 827 829 832 833 835 838 839 840 842 843 845 846 847 848 849 850 851 853 855 856
780 781 782 785 788 792 795 798 801 804 806 808 810 813 815 818 820 822 823 825 825 825 826 829 831 833 835 837 838 840 841 843 845 846 847 849 849 850 850 852 854 856
778 778 780 783 787 791 794 796 800 803 805 807 810 812 814 817 819 821 823 824 824 824 826 828 830 832 834 836 837 839 841 842 844 846 847 848 850 850 850 851 853 855
774 777 780 782 786 789 793 796 799 802 804 806 809 812 814 816 818 820 822 823 823 824 826 828 830 831 833 835 836 838 840 841 843 845 846 848 849 850 850 850 852 853